TimeCST,TemperatureF,Dew PointF,Humidity,Sea Level PressureIn,VisibilityMPH,Wind Direction,Wind SpeedMPH,Gust SpeedMPH,PrecipitationIn,Events,Conditions,WindDirDegrees,DateUTC
12:53 AM,12.9,9.0,84,29.83,8.0,South,12.7,-,N/A,,Clear,180,2013-01-07 06:53:00
1:53 AM,10.9,8.1,88,29.82,8.0,South,6.9,-,N/A,,Clear,170,2013-01-07 07:53:00
2:53 AM,10.0,7.0,87,29.82,9.0,South,5.8,-,N/A,,Clear,180,2013-01-07 08:53:00
3:53 AM,10.0,7.0,87,29.80,9.0,South,5.8,-,N/A,,Clear,180,2013-01-07 09:53:00
4:53 AM,16.0,12.0,84,29.78,10.0,SSW,6.9,-,N/A,,Clear,200,2013-01-07 10:53:00
5:53 AM,18.0,15.1,88,29.78,10.0,SW,5.8,-,N/A,,Scattered Clouds,220,2013-01-07 11:53:00
6:53 AM,21.0,16.0,81,29.78,10.0,WSW,9.2,-,N/A,,Partly Cloudy,240,2013-01-07 12:53:00
7:53 AM,19.0,15.1,85,29.79,10.0,SW,8.1,-,N/A,,Clear,220,2013-01-07 13:53:00
8:53 AM,21.9,17.1,82,29.81,10.0,WSW,10.4,-,N/A,,Clear,250,2013-01-07 14:53:00
9:53 AM,24.1,19.0,81,29.83,10.0,WSW,10.4,-,N/A,,Clear,240,2013-01-07 15:53:00
10:53 AM,28.0,21.0,75,29.84,10.0,WSW,12.7,-,N/A,,Clear,250,2013-01-07 16:53:00
11:53 AM,33.1,24.1,70,29.82,10.0,West,10.4,-,N/A,,Clear,260,2013-01-07 17:53:00
12:53 PM,35.6,23.0,60,29.74,10.0,West,19.6,-,N/A,,Clear,280,2013-01-07 18:53:00
1:53 PM,35.1,21.9,59,29.82,10.0,West,16.1,24.2,N/A,,Clear,270,2013-01-07 19:53:00
2:53 PM,34.0,21.0,59,29.84,10.0,West,16.1,24.2,N/A,,Clear,280,2013-01-07 20:53:00
3:53 PM,30.0,19.9,66,29.87,10.0,West,12.7,-,N/A,,Clear,270,2013-01-07 21:53:00
4:53 PM,28.4,19.4,69,29.80,10.0,West,12.7,-,N/A,,Clear,260,2013-01-07 22:53:00
5:53 PM,26.1,18.0,71,29.89,10.0,WSW,9.2,-,N/A,,Clear,240,2013-01-07 23:53:00
6:53 PM,21.9,16.0,78,29.90,10.0,WSW,8.1,-,N/A,,Clear,250,2013-01-08 00:53:00
7:53 PM,19.9,14.0,78,29.92,10.0,WSW,6.9,-,N/A,,Clear,250,2013-01-08 01:53:00
8:53 PM,19.0,14.0,81,29.93,10.0,Calm,Calm,-,N/A,,Clear,0,2013-01-08 02:53:00
9:53 PM,12.0,10.0,92,29.94,10.0,West,9.2,-,N/A,,Clear,260,2013-01-08 03:53:00
10:53 PM,14.0,10.9,88,29.95,10.0,Calm,Calm,-,N/A,,Clear,0,2013-01-08 04:53:00
11:15 PM,10.4,8.6,92,29.87,0.8,SW,4.6,-,N/A,,Clear,220,2013-01-08 05:15:00
11:26 PM,10.4,8.6,92,29.87,0.2,SW,3.5,-,N/A,Fog,Light Freezing Fog,220,2013-01-08 05:26:00
11:34 PM,10.4,8.6,92,29.87,1.0,Calm,Calm,-,N/A,,Clear,0,2013-01-08 05:34:00
11:46 PM,12.2,8.6,85,29.87,0.8,Calm,Calm,-,N/A,,Haze,0,2013-01-08 05:46:00
11:51 PM,14.0,10.4,86,29.87,2.0,Calm,Calm,-,N/A,,Clear,0,2013-01-08 05:51:00
11:53 PM,14.0,10.9,88,29.94,4.0,Calm,Calm,-,N/A,,Clear,0,2013-01-08 05:53:00